SAS70P EIDW-EKCH

Flight info

Callsign SAS70P
Flight time N/A
Altitude 37000
Route ROTEV DCT GOTNA DCT TRN DCT ZOFAT DCT SURAT DCT PETIL/N0436F350 DCT TESPI
Aircraft A320/M-SDE1FGHIJ1RWXYZ/LB1

Departure

Time N/A
Airport Dublin Airport (EIDW)

Arrival

Time 2026-04-22 13:45
Airport Copenhagen Kastrup Airport (EKCH)
Time Latitude Longitude Altitude Speed Heading
2026-04-22 12:38 55.85252 0.76408 37544 ft 436 kts 87°
2026-04-22 12:38 55.85435 0.81787 37543 ft 435 kts 87°
2026-04-22 12:39 55.85961 0.97872 37539 ft 433 kts 87°
2026-04-22 12:40 55.86300 1.08591 37538 ft 433 kts 87°
2026-04-22 12:40 55.86641 1.19285 37539 ft 432 kts 87°
2026-04-22 12:41 55.86962 1.29882 37540 ft 431 kts 87°
2026-04-22 12:41 55.87273 1.40538 37541 ft 430 kts 87°
2026-04-22 12:42 55.87570 1.51148 37542 ft 429 kts 87°
2026-04-22 12:42 55.87859 1.61741 37542 ft 428 kts 87°
2026-04-22 12:43 55.88145 1.72314 37543 ft 427 kts 87°
2026-04-22 12:43 55.88417 1.82871 37540 ft 426 kts 87°
2026-04-22 12:44 55.88685 1.93336 37538 ft 425 kts 87°
2026-04-22 12:44 55.88947 2.03847 37528 ft 424 kts 88°
2026-04-22 12:45 55.89186 2.14343 37523 ft 424 kts 88°
2026-04-22 12:45 55.89421 2.24835 37519 ft 424 kts 88°
2026-04-22 12:46 55.89650 2.35318 37515 ft 423 kts 88°
2026-04-22 12:46 55.89866 2.45800 37510 ft 424 kts 88°
2026-04-22 12:47 55.90073 2.56237 37507 ft 423 kts 88°
2026-04-22 12:47 55.90280 2.66754 37505 ft 423 kts 88°
2026-04-22 12:48 55.90465 2.77183 37506 ft 423 kts 88°
2026-04-22 12:48 55.90647 2.87673 37505 ft 423 kts 88°
2026-04-22 12:49 55.90819 2.98161 37508 ft 423 kts 88°
2026-04-22 12:49 55.90983 3.08635 37516 ft 422 kts 88°
2026-04-22 12:50 55.91136 3.19103 37519 ft 422 kts 88°
2026-04-22 12:50 55.91290 3.29538 37521 ft 421 kts 88°
2026-04-22 12:51 55.91427 3.39958 37521 ft 420 kts 88°
2026-04-22 12:51 55.91552 3.50308 37522 ft 420 kts 88°
2026-04-22 12:52 55.91734 3.60688 37524 ft 418 kts 87°
2026-04-22 12:52 55.91973 3.71031 37523 ft 417 kts 87°
2026-04-22 12:53 55.92199 3.81359 37518 ft 416 kts 87°
2026-04-22 12:53 55.92390 3.91611 37515 ft 416 kts 87°
2026-04-22 12:54 55.92566 4.01895 37509 ft 415 kts 87°
2026-04-22 12:54 55.92736 4.12176 37507 ft 415 kts 88°
2026-04-22 12:55 55.92905 4.22452 37507 ft 414 kts 88°
2026-04-22 12:55 55.93067 4.32724 37505 ft 414 kts 88°
2026-04-22 12:56 55.93215 4.42939 37505 ft 414 kts 88°
2026-04-22 12:56 55.93360 4.53215 37505 ft 415 kts 88°
2026-04-22 12:57 55.93494 4.63497 37505 ft 415 kts 88°
2026-04-22 12:57 55.93619 4.73785 37505 ft 415 kts 88°
2026-04-22 12:58 55.93730 4.84062 37500 ft 415 kts 88°
2026-04-22 12:58 55.93830 4.94357 37509 ft 415 kts 88°
2026-04-22 12:59 55.93941 5.04632 37508 ft 414 kts 87°
2026-04-22 12:59 55.94095 5.14906 37503 ft 414 kts 87°
2026-04-22 13:00 55.94247 5.25136 37505 ft 414 kts 87°
2026-04-22 13:00 55.94381 5.35396 37504 ft 413 kts 87°
2026-04-22 13:01 55.94499 5.45633 37504 ft 412 kts 88°
2026-04-22 13:01 55.94609 5.55850 37501 ft 412 kts 88°
2026-04-22 13:02 55.94708 5.66049 37498 ft 410 kts 88°
2026-04-22 13:02 55.94814 5.76213 37484 ft 409 kts 88°
2026-04-22 13:03 55.94901 5.86288 37478 ft 408 kts 88°
2026-04-22 13:03 55.94970 5.96399 37466 ft 407 kts 88°
2026-04-22 13:04 55.95039 6.06501 37459 ft 407 kts 88°
2026-04-22 13:04 55.95103 6.16614 37455 ft 407 kts 88°
2026-04-22 13:05 55.95158 6.26703 37451 ft 406 kts 88°
2026-04-22 13:05 55.95201 6.36806 37441 ft 407 kts 88°
2026-04-22 13:06 55.95229 6.46850 37439 ft 407 kts 88°
2026-04-22 13:06 55.95259 6.56954 37438 ft 407 kts 88°
2026-04-22 13:07 55.95285 6.67078 37435 ft 408 kts 89°
2026-04-22 13:07 55.95307 6.77228 37427 ft 409 kts 89°
2026-04-22 13:08 55.95306 6.87408 37426 ft 410 kts 89°
2026-04-22 13:08 55.95290 6.97527 37428 ft 411 kts 89°
2026-04-22 13:09 55.95265 7.07720 37430 ft 411 kts 89°
2026-04-22 13:09 55.95248 7.17908 37428 ft 411 kts 89°
2026-04-22 13:10 55.95234 7.28084 37431 ft 410 kts 89°
2026-04-22 13:10 55.95200 7.38255 37421 ft 410 kts 89°
2026-04-22 13:11 55.95153 7.48417 37424 ft 410 kts 89°
2026-04-22 13:11 55.95090 7.58559 37424 ft 408 kts 89°
2026-04-22 13:12 55.95021 7.68601 37423 ft 407 kts 89°
2026-04-22 13:12 55.94948 7.78672 37424 ft 406 kts 89°
2026-04-22 13:13 55.94867 7.88723 37423 ft 405 kts 90°
2026-04-22 13:13 55.94776 7.98755 37421 ft 404 kts 89°
2026-04-22 13:14 55.94688 8.08771 37421 ft 403 kts 90°
2026-04-22 13:14 55.94589 8.18775 37416 ft 404 kts 90°
2026-04-22 13:15 55.94472 8.28723 37414 ft 403 kts 90°
2026-04-22 13:15 55.94349 8.38734 37411 ft 404 kts 90°
2026-04-22 13:16 55.94225 8.48753 37407 ft 404 kts 90°
2026-04-22 13:16 55.94096 8.58776 37407 ft 404 kts 90°
2026-04-22 13:17 55.93951 8.68794 37413 ft 403 kts 89°
2026-04-22 13:17 55.93799 8.78711 37410 ft 402 kts 89°
2026-04-22 13:18 55.93637 8.88668 37403 ft 401 kts 90°
2026-04-22 13:18 55.93463 8.98605 37397 ft 401 kts 90°
2026-04-22 13:18 55.93374 9.03575 37194 ft 402 kts 90°
2026-04-22 13:19 55.93314 9.06864 36958 ft 398 kts 90°
2026-04-22 13:19 55.93224 9.11758 36710 ft 391 kts 90°
2026-04-22 13:19 55.93133 9.16591 36459 ft 388 kts 90°
2026-04-22 13:19 55.93044 9.21386 36209 ft 387 kts 90°
2026-04-22 13:20 55.92956 9.26182 35961 ft 388 kts 90°
2026-04-22 13:20 55.92867 9.30985 35711 ft 386 kts 90°
2026-04-22 13:20 55.92774 9.35764 35461 ft 383 kts 90°
2026-04-22 13:20 55.92678 9.40483 35211 ft 378 kts 90°
2026-04-22 13:21 55.92581 9.45143 34961 ft 374 kts 90°
2026-04-22 13:21 55.92484 9.49679 34716 ft 369 kts 90°
2026-04-22 13:21 55.92386 9.54218 34466 ft 364 kts 90°
2026-04-22 13:21 55.92287 9.58689 34225 ft 358 kts 90°
2026-04-22 13:22 55.92190 9.63097 33967 ft 353 kts 91°
2026-04-22 13:22 55.92092 9.67434 33698 ft 346 kts 91°
2026-04-22 13:22 55.91995 9.71686 33321 ft 341 kts 90°
2026-04-22 13:22 55.91897 9.75882 32926 ft 336 kts 90°
2026-04-22 13:23 55.91799 9.80023 32533 ft 332 kts 91°
2026-04-22 13:23 55.91700 9.84113 32158 ft 328 kts 90°
2026-04-22 13:23 55.91538 9.88165 31614 ft 331 kts 98°
2026-04-22 13:23 55.90917 9.92137 31092 ft 334 kts 102°
2026-04-22 13:24 55.90259 9.96102 30560 ft 333 kts 102°
2026-04-22 13:24 55.89602 10.00059 30037 ft 332 kts 102°
2026-04-22 13:24 55.88943 10.03999 29508 ft 331 kts 102°
2026-04-22 13:24 55.88281 10.07920 28982 ft 330 kts 102°
2026-04-22 13:25 55.87615 10.11840 28457 ft 333 kts 102°
2026-04-22 13:25 55.86947 10.15796 27937 ft 334 kts 102°
2026-04-22 13:25 55.86274 10.19766 27399 ft 336 kts 102°
2026-04-22 13:25 55.85599 10.23759 26869 ft 338 kts 102°
2026-04-22 13:26 55.84925 10.27720 26342 ft 340 kts 102°
2026-04-22 13:26 55.84237 10.31757 25820 ft 342 kts 103°
2026-04-22 13:26 55.83541 10.35820 25287 ft 344 kts 103°
2026-04-22 13:26 55.82840 10.39897 24766 ft 346 kts 103°
2026-04-22 13:27 55.82133 10.43989 24236 ft 346 kts 103°
2026-04-22 13:27 55.81421 10.48094 23710 ft 348 kts 103°
2026-04-22 13:27 55.80706 10.52210 23182 ft 349 kts 103°
2026-04-22 13:27 55.79990 10.56331 22664 ft 349 kts 104°
2026-04-22 13:28 55.79272 10.60460 22121 ft 350 kts 103°
2026-04-22 13:28 55.78553 10.64598 21599 ft 350 kts 104°
2026-04-22 13:28 55.77833 10.68736 21066 ft 351 kts 104°
2026-04-22 13:28 55.77112 10.72877 20545 ft 350 kts 104°
2026-04-22 13:29 55.76401 10.76947 20060 ft 349 kts 104°
2026-04-22 13:29 55.75683 10.81040 19611 ft 346 kts 104°
2026-04-22 13:29 55.74968 10.85103 19157 ft 343 kts 104°
2026-04-22 13:29 55.74256 10.89128 18702 ft 341 kts 104°
2026-04-22 13:30 55.73548 10.93125 18254 ft 339 kts 104°
2026-04-22 13:30 55.72844 10.97093 17803 ft 336 kts 104°
2026-04-22 13:30 55.72143 11.01035 17370 ft 334 kts 104°
2026-04-22 13:30 55.71448 11.04951 16935 ft 331 kts 104°
2026-04-22 13:31 55.70757 11.08834 16483 ft 330 kts 104°
2026-04-22 13:31 55.70067 11.12703 16034 ft 328 kts 104°
2026-04-22 13:31 55.69380 11.16551 15580 ft 327 kts 104°
2026-04-22 13:31 55.68691 11.20385 15122 ft 326 kts 104°
2026-04-22 13:32 55.68003 11.24202 14677 ft 325 kts 104°
2026-04-22 13:32 55.67324 11.27958 14231 ft 324 kts 104°
2026-04-22 13:32 55.66639 11.31743 13787 ft 322 kts 104°
2026-04-22 13:32 55.65958 11.35512 13341 ft 320 kts 104°
2026-04-22 13:33 55.65282 11.39267 12891 ft 320 kts 104°
2026-04-22 13:33 55.64604 11.43013 12439 ft 320 kts 104°
2026-04-22 13:33 55.63923 11.46757 11987 ft 320 kts 104°
2026-04-22 13:33 55.63238 11.50504 11535 ft 320 kts 104°
2026-04-22 13:34 55.62554 11.54244 11079 ft 319 kts 104°
2026-04-22 13:34 55.61873 11.57977 10624 ft 319 kts 104°
2026-04-22 13:34 55.61186 11.61704 10173 ft 319 kts 104°
2026-04-22 13:34 55.60497 11.65425 9720 ft 318 kts 104°
2026-04-22 13:35 55.59816 11.69095 9275 ft 318 kts 104°
2026-04-22 13:35 55.59131 11.72804 8819 ft 318 kts 104°
2026-04-22 13:35 55.58448 11.76520 8372 ft 317 kts 104°
2026-04-22 13:35 55.57763 11.80227 7937 ft 317 kts 104°
2026-04-22 13:36 55.57088 11.83896 7671 ft 310 kts 104°
2026-04-22 13:36 55.56428 11.87475 7419 ft 303 kts 104°
2026-04-22 13:36 55.55778 11.90987 7186 ft 297 kts 104°
2026-04-22 13:36 55.55142 11.94422 6955 ft 292 kts 104°
2026-04-22 13:37 55.54520 11.97764 6703 ft 287 kts 104°
2026-04-22 13:37 55.53899 12.01089 6453 ft 283 kts 104°
2026-04-22 13:37 55.53286 12.04365 6206 ft 279 kts 104°
2026-04-22 13:37 55.52680 12.07596 5961 ft 276 kts 104°
2026-04-22 13:38 55.52080 12.10790 5708 ft 273 kts 104°
2026-04-22 13:38 55.50899 12.17078 5217 ft 265 kts 104°
2026-04-22 13:38 55.50335 12.20103 4987 ft 254 kts 104°
2026-04-22 13:39 55.49790 12.23013 4735 ft 245 kts 104°
2026-04-22 13:39 55.49260 12.25810 4484 ft 236 kts 104°
2026-04-22 13:39 55.48748 12.28521 4258 ft 231 kts 104°
2026-04-22 13:39 55.48251 12.31152 4041 ft 227 kts 104°
2026-04-22 13:40 55.47757 12.33771 3803 ft 224 kts 104°
2026-04-22 13:40 55.47277 12.36369 3528 ft 222 kts 100°
2026-04-22 13:40 55.47148 12.39019 3275 ft 212 kts 79°
2026-04-22 13:40 55.47515 12.41458 3078 ft 201 kts 59°
2026-04-22 13:41 55.48267 12.43461 2838 ft 193 kts 40°
2026-04-22 13:41 55.49249 12.45019 2588 ft 189 kts 35°
2026-04-22 13:41 55.50241 12.46537 2347 ft 189 kts 36°
2026-04-22 13:41 55.51231 12.48056 2104 ft 188 kts 36°
2026-04-22 13:42 55.52202 12.49547 1871 ft 184 kts 36°
2026-04-22 13:42 55.53159 12.51019 1614 ft 180 kts 36°
2026-04-22 13:42 55.54064 12.52410 1386 ft 168 kts 36°
2026-04-22 13:42 55.54921 12.53732 1159 ft 158 kts 36°
2026-04-22 13:43 55.55722 12.54966 947 ft 147 kts 36°
2026-04-22 13:43 55.56459 12.56103 780 ft 137 kts 36°
2026-04-22 13:43 55.57171 12.57195 585 ft 134 kts 36°
2026-04-22 13:43 55.57878 12.58269 391 ft 135 kts 37°
2026-04-22 13:44 55.58584 12.59368 243 ft 135 kts 37°
2026-04-22 13:44 55.59294 12.60462 57 ft 135 kts 38°
2026-04-22 13:44 55.59946 12.61460 19 ft 108 kts 39°
2026-04-22 13:44 55.60421 12.62202 20 ft 75 kts 42°
2026-04-22 13:45 55.60763 12.62737 19 ft 62 kts 41°
2026-04-22 13:45 55.61077 12.63217 21 ft 57 kts 41°
2026-04-22 13:45 55.61364 12.63665 20 ft 51 kts 41°
2026-04-22 13:45 55.61573 12.63995 21 ft 27 kts 41°
2026-04-22 13:46 55.61695 12.64088 19 ft 19 kts 357°
2026-04-22 13:46 55.61830 12.64073 17 ft 18 kts 357°
2026-04-22 13:46 55.61950 12.64136 17 ft 20 kts 26°
2026-04-22 13:46 55.62082 12.64248 18 ft 22 kts 25°
2026-04-22 13:47 55.62220 12.64364 17 ft 16 kts 30°
2026-04-22 13:47 55.62282 12.64542 17 ft 19 kts 66°
2026-04-22 13:47 55.62335 12.64751 17 ft 15 kts 66°
2026-04-22 13:47 55.62340 12.64901 18 ft 14 kts 117°
2026-04-22 13:48 55.62283 12.65054 19 ft 13 kts 123°
2026-04-22 13:48 55.62301 12.65195 18 ft 14 kts 32°
2026-04-22 13:48 55.62406 12.65202 19 ft 17 kts 358°
2026-04-22 13:48 55.62530 12.65197 17 ft 17 kts 359°
2026-04-22 13:49 55.62630 12.65193 18 ft 12 kts 357°
2026-04-22 13:49 55.62681 12.65165 19 ft 5 kts 303°
2026-04-22 13:49 55.62693 12.65102 17 ft 4 kts 289°
2026-04-22 13:49 55.62696 12.65085 17 ft 1 kts 289°
2026-04-22 13:50 55.62697 12.65082 17 ft 0 kts 289°